Home > Weather > Bergheim > Past weeks

Flag for Germany Past Weather in Bergheim, North Rhine-Westphalia, Germany — Yesterday and Last 2 Weeks

Now
70 °F

Mild.


Feels Like: 70 °F
Forecast: 56 / 64 °F
Wind: 7 mph from South

Location: Noervenich

Current Time: Jul 1, 2016 at 9:04:10 PM

Latest Report: Jul 1, 2016 at 8:20 PM


Visibility: N/A

Pressure: 29.89 "Hg

Humidity: 64%

Dew Point: 57 °F

Location of BergheimLocation

Past Weather in Bergheim — Graph

°F

Bergheim Temperature Yesterday

Maximum temperature yesterday: 70 °F (at 4:20 PM)
Minimum temperature yesterday: 59 °F (at 1:20 AM)
Average temperature yesterday: 64 °F

High & Low Weather Summary for the Past Weeks

 TemperatureHumidityPressure
High91 °F (Jun 23, 2:20 PM)100% (Jun 16, 11:20 PM)30.27 "Hg (Jun 16, 11:20 PM)
Low50 °F (Jun 20, 2:20 AM)41% (Jun 23, 4:20 PM)29.56 "Hg (Jun 16, 7:20 PM)
Average64 °F78%30.02 "Hg
* Reported Jun 16 7:20 PM — Jul 1 7:20 PM, Bergheim, Weather by CustomWeather, © 2016

Note: Actual official high and low records may vary slightly from our data, if they occured in-between our weather recording intervals... More about our weather records

Advertising

Bergheim Weather History for the Previous 24 Hours

Scroll right to see more
 ConditionsComfort  
Time TempWeatherWind HumidityBarometerVisibility
7:20 PM
Fri, Jul 1
70 °FMild.7 mph64%29.92 "HgN/A
6:20 PM70 °FMild.6 mph64%29.92 "HgN/A
5:20 PM68 °FMild.12 mph69%29.95 "HgN/A
4:20 PM68 °FMild.10 mph69%29.95 "HgN/A
3:20 PM72 °FMild.10 mph65%29.95 "HgN/A
2:20 PM72 °FBroken clouds.9 mph65%29.95 "HgN/A
1:20 PM68 °FPartly sunny.10 mph69%29.95 "HgN/A
12:20 PM66 °FPartly sunny.6 mph78%29.98 "HgN/A
11:20 AM66 °FPartly sunny.5 mph78%29.95 "HgN/A
10:20 AM66 °FPartly sunny.7 mph78%29.95 "HgN/A
9:20 AM66 °FLight rain. Broken clouds.5 mph83%29.95 "HgN/A
8:20 AM64 °FBroken clouds.3 mph88%29.95 "HgN/A
7:20 AM64 °FPartly sunny.2 mph88%29.92 "HgN/A
6:20 AM63 °FPassing clouds.3 mph94%29.92 "HgN/A
5:20 AM63 °FPassing clouds.6 mph88%29.92 "HgN/A
4:20 AM63 °FPartly cloudy.1 mph88%29.92 "HgN/A
3:20 AM61 °FPartly cloudy.2 mph94%29.92 "HgN/A
2:20 AM61 °FPartly cloudy.2 mph94%29.95 "HgN/A
1:20 AM61 °FPassing clouds.2 mph94%29.95 "HgN/A
12:20 AM61 °FPassing clouds.3 mph94%29.95 "HgN/A
11:20 PM
Thu, Jun 30
63 °FPartly cloudy.2 mph94%29.95 "HgN/A
10:20 PM64 °FRain showers. Broken clouds.3 mph88%29.95 "Hg5 mi
9:20 PM66 °FBroken clouds.5 mph78%29.92 "HgN/A
Weather by CustomWeather, © 2016

See weather overviewHow to use our weather pages